Terminal Aerodrome Forecast
Issued by NWS Atlanta, GA

Home | Current Version | Previous Version | Text Only | Print | Product List | Glossary On
Versions: 1 2 3 4 5 6 7 8 9 10 11 12 13 14 15 16 17 18 19 20 21 22 23 24 25 26 27 28 29 30 31 32 33 34 35 36 37 38 39 40 41
000
FTUS42 KFFC 220810 AAA
TAFATL
TAF AMD
KATL 220810Z 2208/2312 08007KT P6SM FEW250
     FM221500 09008KT P6SM FEW030 SCT250
     FM222000 09010KT P6SM BKN040
     FM230200 10008KT P6SM BKN027
     FM230600 10009KT P6SM OVC016
     FM231000 08010KT 5SM -RA BR OVC008=

USA.gov is the U.S. government's official web portal to all federal, state and local government web resources and services.